Location: Castiglione Fibocchi
(43.5333°N, 11.7667°E)
Time: 14:17:42
(UTC+00:00)

Cosmos 1300 - Pass Details

Date: 15 August 2020
Orbit: 511 x 514 km, 82.5° (Epoch: 24 September)

Event Time Altitude Azimuth Distance (km) Brightness Sun altitude
Exits shadow 02:14:35 17° 151° (SSE) 1,337 4.6 -19.7°
Maximum altitude 02:17:00 36° 92° (E) 826 4.1 -19.4°
Drops below altitude 10° 02:20:32 10° 25° (NNE) 1,750 6.4 -19.0°
Sets 02:22:47 0° 17° (NNE) 2,641 7.3 -18.7°
